Location: Breungeshain
(50.5000°N, 9.2000°E)
Time: 20:45:24
(UTC+00:00)

ISS - Pass Details

Date: 22 May 2017
Orbit: 401 x 408 km, 51.6° (Epoch: 25 June)

Event Time Altitude Azimuth Distance (km) Brightness Sun altitude
Exits shadow 00:02:17 23° 270° (W) 917 -2.2 -18.5°
Maximum altitude 00:04:11 75° 352° (N) 428 -3.7 -18.4°
Drops below altitude 10° 00:07:29 10° 79° (E) 1,471 -0.7 -18.3°
Sets 00:09:34 0° 81° (E) 2,330 0.3 -18.3°
